Location: Brunembert
(50.7122°N, 1.8935°E)
Time: 05:07:33
(UTC+00:00)

Cosmos 540 Rocket - Pass Details

Date: 22 April 2021
Orbit: 741 x 753 km, 74.1° (Epoch: 06 May)

Event Time Altitude Azimuth Distance (km) Brightness Sun altitude
Rises 21:02:09 0° 338° (NNW) 3,199 8.0 -16.9°
Reaches altitude 10° 21:04:37 10° 345° (NNW) 2,269 6.9 -17.2°
Maximum altitude 21:09:34 47° 59° (ENE) 988 4.0 -17.7°
Enters shadow 21:11:41 30° 113° (ESE) 1,318 4.2 -17.9°
